Regional Weather Roundup
Issued by NWS

Home | Current Version | Previous Version | Text Only | Print | Product List | Glossary Off
Versions: 1 2 3 4 5 6 7 8 9 10 11 12 13 14 15 16 17 18 19 20 21 22 23 24 25 26 27 28 29 30 31 32 33 34 35 36 37 38 39 40 41 42 43 44 45 46 47 48 49 50

000
ASUS43 KFSD 031810
RWRSD

WEATHER ROUNDUP FOR SOUTH DAKOTA
NATIONAL WEATHER SERVICE SIOUX FALLS SD
100 PM CDT TUE MAY 03 2016

NOTE: "FAIR" INDICATES FEW OR NO CLOUDS BELOW 12,000 FEET WITH NO
SIGNIFICANT WEATHER AND/OR OBSTRUCTIONS TO VISIBILITY.


SDZ001>005-009-010-012>017-031900-
NORTHWEST AND NORTH CENTRAL SOUTH DAKOTA

CITY           SKY/WX    TMP DP  RH WIND       PRES   REMARKS
BUFFALO          N/A     71  32  23 NW12      30.03F
FAITH            N/A     70  34  26 NW13G22   30.05F
MOBRIDGE       SUNNY     74  43  32 NW12      29.96F
$$

SDZ012>016-024>037-041>051-057-063-072>074-031900-
SOUTHWEST AND SOUTH CENTRAL SOUTH DAKOTA

CITY           SKY/WX    TMP DP  RH WIND       PRES   REMARKS
RAPID CTY ARPT SUNNY     68  37  32 N14G21    30.11S
PIERRE         SUNNY     68  42  38 NW17      30.01F
CUSTER         SUNNY     62  28  27 NE12      30.17F
ELLSWORTH AFB  SUNNY     67  37  32 N15       30.10F
PHILIP         SUNNY     70  39  32 N12       30.06F
PINE RIDGE     SUNNY     65  34  31 NW14      30.12F
WINNER         FAIR      66  44  45 NW14      30.05F
$$

SDZ004>011-016>023-039-040-031900-
NORTHEAST SOUTH DAKOTA

CITY           SKY/WX    TMP DP  RH WIND       PRES   REMARKS
ABERDEEN       SUNNY     73  41  31 NW23G31   29.91F
WATERTOWN      SUNNY     67  42  40 W17G24    29.92F
BROOKINGS      MOSUNNY   64  43  46 NW23G30   29.92F
SISSETON         N/A     71  42  35 NW17G25   29.84F
$$

SDZ017-020-022-023-036>040-048>070-031900-
SOUTHEAST SOUTH DAKOTA

CITY           SKY/WX    TMP DP  RH WIND       PRES   REMARKS
SIOUX FALLS    MOSUNNY   64  44  48 W18G25    29.96F
HURON          SUNNY     68  45  43 NW12G22   29.95F
CHAMBERLAIN    SUNNY     67  46  46 NW13      30.02F
MITCHELL       MOSUNNY   66  48  52 NW22      29.99F
YANKTON        MOSUNNY   64  45  48 W16       30.00F
$$

ABBREVIATIONS USED IN REMARKS
   TC - TEMPERATURE IN CELSIUS
  WCI - WIND CHILL INDEX
   HX - HEAT INDEX
  VSB - VISIBILITY




USA.gov is the U.S. government's official web portal to all federal, state and local government web resources and services.